Ozark, AL

4:46 AM CDT on September 21, 2017 (GMT -0500)
Cairns Army Air Field

Weather History for KOZR - January, 2014

Change the Weather History Date:

Wednesday, January 29, 2014

  Actual Average Record
Temperature  
Mean Temperature 22 °F -  
Max Temperature 24 °F 57 °F 77 °F (2013)
Min Temperature 19 °F 38 °F 19 °F (2014)
Degree Days  
Heating Degree Days 43    
Moisture  
Dew Point 18 °F    
Average Humidity 83    
Maximum Humidity 89    
Minimum Humidity 75    
Precipitation  
Precipitation 0.00 in - - ()
Sea Level Pressure  
Sea Level Pressure 30.33 in    
Wind  
Wind Speed 8 mph (North)    
Max Wind Speed 13 mph    
Max Gust Speed 20 mph    
Visibility 10 miles    
Events      
Averages and records for this station are not official NWS values.
T = Trace of Precipitation, MM = Missing Value Source: NWS Daily Summary

Daily Weather History Graph

Daily Weather History Graph

Search for Another Location

Airport or City:

Trip Planner

Search our weather history database for the weather conditions in past years. The results will help you decide how hot, cold, wet, or windy it might be!

Date:

Astronomy

Jan. 29, 2014 Rise Set
Actual Time 6:36 AM CST 5:15 PM CST
Civil Twilight 6:11 AM CST 5:40 PM CST
Nautical Twilight 5:42 AM CST 6:10 PM CST
Astronomical Twilight 5:13 AM CST 6:38 PM CST
Moon 5:12 AM CST (1/29) 4:13 PM CST (1/29)
Length of Visible Light 11h 29m
Length of Day
10h 38m
Waning Crescent, 2% of the Moon is Illuminated
Jan 29
Waning Crescent
Jan 30
New
Feb 6
First Quarter
Feb 14
Full
Feb 22
Last Quarter

Hourly Weather History & Observations

Time (CST) Temp. Windchill Dew Point Humidity Pressure Visibility Wind Dir Wind Speed Gust Speed Precip Events Conditions
12:58 AM 24.4 °F 13.0 °F 21.4 °F 88% 30.25 in 10.0 mi North 12.7 mph 19.6 mph 0.00 in   Overcast
1:58 AM 23.7 °F 12.6 °F 20.1 °F 86% 30.27 in 10.0 mi NNW 11.5 mph 17.3 mph N/A   Overcast
2:58 AM 23.5 °F 13.0 °F 20.3 °F 87% 30.25 in 10.0 mi North 10.4 mph - N/A   Mostly Cloudy
3:58 AM 23.0 °F 13.1 °F 19.2 °F 85% 30.26 in 10.0 mi North 9.2 mph - 0.00 in   Overcast
4:58 AM 22.6 °F 11.9 °F 18.9 °F 85% 30.29 in 10.0 mi North 10.4 mph - N/A   Mostly Cloudy
5:58 AM 21.9 °F 12.5 °F 18.0 °F 85% 30.31 in 10.0 mi North 8.1 mph - N/A   Scattered Clouds
6:58 AM 21.2 °F 12.6 °F 16.2 °F 81% 30.36 in 10.0 mi North 6.9 mph - N/A   Clear
7:58 AM 21.2 °F 10.9 °F 17.1 °F 84% 30.37 in 10.0 mi North 9.2 mph - N/A   Clear
8:58 AM 21.7 °F 11.5 °F 16.3 °F 80% 30.38 in 10.0 mi North 9.2 mph - N/A   Partly Cloudy
9:58 AM 21.9 °F 12.5 °F 16.2 °F 78% 30.39 in 10.0 mi North 8.1 mph - N/A   Mostly Cloudy
10:58 AM 22.6 °F 12.6 °F 17.1 °F 79% 30.37 in 10.0 mi North 9.2 mph - N/A   Scattered Clouds
11:58 AM 23.2 °F 14.1 °F 16.9 °F 77% 30.37 in 10.0 mi North 8.1 mph - N/A   Mostly Cloudy
12:58 PM 23.2 °F 14.1 °F 17.4 °F 79% 30.35 in 10.0 mi NNW 8.1 mph - N/A   Scattered Clouds
1:58 PM 23.7 °F 14.0 °F 16.9 °F 75% 30.33 in 10.0 mi North 9.2 mph - N/A   Overcast
2:58 PM 24.1 °F 14.4 °F 17.1 °F 75% 30.32 in 10.0 mi North 9.2 mph - N/A   Mostly Cloudy
3:58 PM 24.8 °F 19.1 °F 18.7 °F 78% 30.34 in 10.0 mi North 4.6 mph - N/A   Scattered Clouds
4:58 PM 24.6 °F 18.8 °F 19.4 °F 81% 30.33 in 10.0 mi North 4.6 mph - N/A   Clear
5:58 PM 23.2 °F - 20.3 °F 89% 30.34 in 10.0 mi ENE 1.2 mph - N/A   Scattered Clouds
6:58 PM 22.3 °F 17.6 °F 19.4 °F 89% 30.35 in 10.0 mi North 3.5 mph - N/A   Clear
7:58 PM 21.7 °F - 18.3 °F 87% 30.36 in 10.0 mi Calm Calm - N/A   Clear
8:58 PM 21.9 °F - 18.3 °F 86% 30.36 in 10.0 mi NNW 1.2 mph - N/A   Partly Cloudy
9:58 PM 21.2 °F - 18.0 °F 87% 30.37 in 10.0 mi North 1.2 mph - N/A   Clear
10:58 PM 20.8 °F - 17.1 °F 85% 30.37 in 10.0 mi NNE 1.2 mph - N/A   Clear
11:58 PM 19.2 °F - 15.6 °F 86% 30.35 in 10.0 mi NNE 1.2 mph - N/A   Clear